Location: Wildcat Hills Observatory
(41.6350°N, 103.6812°W)
Time: 15:33:13
(UTC-07:00)

COSMOS 2406 - Pass Details

Date: 23 June 2018
Orbit: 843 x 864 km, 71.0° (Epoch: 08 December)

Event Time Altitude Azimuth Distance (km) Brightness Sun altitude
Rises 21:35:38 0° 338° (NNW) 3,450 7.7 -10.0°
Reaches altitude 10° 21:38:09 10° 342° (NNW) 2,507 6.7 -10.3°
Maximum altitude 21:43:51 61° 63° (ENE) 972 3.4 -11.1°
Enters shadow 21:48:30 15° 141° (SE) 2,117 4.6 -11.7°
